DELTA 1 DEB, 13563

Orbit data source: Space-Track

DELTA 1 DEB, 13563 is space debris in SSO originally from a launch on Sun, 05 Mar 1978 UTC launched from the Air Force Western Test Range (AFWTR). Debris objects in space refer to the collection of defunct objects orbiting the Earth. Examples of debris include non-operational satellites, rocket bodies, and fragments generated from explosions, collisions, or faulty payload assembly.

Loading next visibility...
Identifier
13563, 1978-026FA
Orbit
SSO
Country
Flag of USUS
Related business
Manufacturer
Unknown
Mission
Spacecraft
Bus & Motor
Unknown
Mass
Unknown
Launch date (UTC)
1978-03-05 (48 years ago)
Launch vehicle
Unknown
Launch site
Air Force Western Test Range (AFWTR)
Object type
Payload
Rocket body
Debris
Shape & HBR
Unknown shape, 0.1 m
Radar Cross Section
Medium (>0.1 m² and <1 m²)

Expand to show TLE details & history
Last TLE update: 3 days ago

TLE from 3 days ago
0 DELTA 1 DEB
1 13563U 78026FA  26171.05233190  .00000249  00000-0  13152-3 0  9991
2 13563  98.8581 195.0131 0041772 307.4878  77.5084 14.22271428283408
Epoch: 2026-06-20T01:15Z
TLE epoch observation values (Epoch: 2026-06-20T01:15:21.476Z)
Latitude
25.1694°
Longitude
-96.27634°
Altitude
814.342 km
Speed
7.452 km/s
True Right ascension
12h 43m 20s
True Declination
25° 02' 18"
Sunlit
Object was in daylight at epoch
Visualization orbit readout
Latitude
Unknown
Longitude
Unknown
Altitude
Unknown
Speed
Unknown
Apparent Right ascension
Unknown
Apparent Declination
Unknown
Sunlit
N/A
Visualization observer readout
Local Sidereal Time
07:04:03
Azimuth
Unknown
Elevation
Unknown
Doppler factor
Unknown
Orbital elements
Apogee altitude
844.89 km
Perigee altitude
784.797 km
Semi-major axis
7,192.981 km
Eccentricity
0.00418
Inclination
98.8581°
RAAN
195.0131°
Arg. of periapsis
307.4878°
True anomaly
77.97626°
Mean anomaly
77.5084°
Eccentric anomaly
77.74228°
Mean motion
3.55779 °/min
Orbital period
101.19 mins
BSTAR
0.00013152
Loading maneuver chart data...
Computing Atmospheric mass density...

Documentation

Showing up to 5 results
|